{"data":{"norad_id":64477,"epoch":"2026-05-25T04:26:14.834688Z","epoch_age_seconds":62161,"freshness":"FRESH","line1":"1 64477U 25133F   26145.18489392  .00023080  00000+0  67030-3 0  9995","line2":"2 64477  53.1596 119.1149 0001100  55.4030 304.7077 15.35410268 52936","mean_motion":15.35410268,"eccentricity":0.00011,"inclination_deg":53.1596,"raan_deg":119.1149,"arg_perigee_deg":55.403,"mean_anomaly_deg":304.7077,"bstar":0.0006703,"rev_number":5293,"period_min":93.786008209761,"perigee_km":458.9499950644,"apogee_km":460.45431967903,"semimajor_km":6837.8391573717,"source":"CELESTRAK","updated_at":"2026-05-25T13:38:20.457112Z"}}